#timestamp,LO_Frequency,Hit,StdDev 
1689670815.6,286047002.7,Y
1689670835.4,286047000.9,P
1689670855.3,286047000.0,N
1689670875.1,286047000.4,N
1689670895.9,286046999.9,N
1689670915.7,286047000.9,N
1689670935.5,286047000.1,N
1689670955.4,286047000.2,N
1689670975.2,286047000.4,N
1689670995.0,286046999.8,N
1689670995.9,286046999.8,N
1689671015.8,286046999.8,N
1689671035.6,286047000.2,N
1689671055.5,286047000.2,N
1689671075.3,286047000.4,N
1689671095.1,286047000.3,N
1689671115.9,286047000.4,N
1689671135.7,286047000.2,N
1689671155.5,286047000.2,N
1689671175.4,286047000.6,N
1689671195.2,286046999.7,N
1689671245.1,286046999.7,E
1689671255.0,286046999.8,N
1689671255.9,286046999.8,P
1689671275.8,286047002.5,P
1689671295.6,286047000.1,N
1689671315.4,286046999.8,N
1689671335.3,286047000.2,N
1689671355.1,286046999.7,N
1689671375.8,286047002.0,N
1689671395.7,286047001.4,N
1689671415.5,286047002.1,N
1689671435.3,286047002.5,N
1689671455.2,286047001.5,N
1689671475.0,286047001.6,N
1689671475.9,286047001.6,N
1689671495.8,286047001.9,N
1689671515.6,286047001.5,N
1689671535.4,286047001.7,N
1689671555.3,286047004.4,Y
1689671575.1,286047002.7,P
1689671595.9,286047002.4,P
1689671615.7,286047002.6,P
1689671635.5,286047002.2,Y
1689671655.4,286047000.7,P
1689671675.2,286046998.1,N
1689671695.0,286047001.1,N
1689671695.9,286047001.1,N
1689671715.8,286046998.3,N
1689671735.6,286046999.3,N
1689671755.5,286046998.4,N
1689671775.3,286046998.6,N
1689671795.1,286046998.5,N
1689671815.9,286046998.3,N
1689671835.7,286046998.3,N
1689671855.5,286047000.7,N
1689671875.4,286047000.8,N
1689671895.2,286046998.5,N
1689671915.1,286047001.1,N
1689671916.0,286047001.1,N
1689671935.8,286047001.0,N
1689671955.6,286047000.8,N
1689671975.5,286047000.5,N
1689671995.3,286047000.6,N
1689672015.2,286047000.4,N
1689672035.9,286047000.4,N
1689672055.7,286047001.2,N
1689672075.6,286047001.2,N
1689672095.4,286046999.8,N
1689672115.2,286047000.2,N
1689672135.1,286046999.8,N
1689672136.0,286046999.8,N
1689672155.8,286046999.8,N
1689672175.7,286047002.6,N
1689672195.5,286047002.8,N
1689672215.3,286047002.7,N
1689672235.2,286047000.2,N
1689672255.0,286047002.5,N
1689672255.9,286047002.5,N
1689672275.8,286047002.4,N
1689672295.6,286047002.5,N
1689672315.4,286047000.0,N
1689672335.3,286046999.8,N
1689672355.1,286047000.2,N
1689672375.8,286047000.6,N
1689672395.7,286047000.0,N
1689672415.5,286047000.9,N
1689672435.4,286046999.8,N
1689672455.2,286047000.0,N
1689672475.0,286047000.2,N
1689672475.9,286047000.2,N
1689672495.8,286047002.4,N
1689672515.6,286047002.8,N
1689672535.4,286046999.7,N
1689672555.3,286047002.4,N
1689672575.1,286047000.3,N
1689672595.9,286047002.8,N
1689672615.7,286047000.1,N
1689672635.5,286047000.6,N
1689672655.4,286047000.1,N
1689672675.2,286047000.3,N
1689672695.1,286047000.6,N
1689672696.0,286047000.6,N
1689672715.8,286047000.5,N
1689672735.6,286047000.2,N
1689672755.5,286047000.3,N
1689672775.3,286047000.1,N
1689672795.1,286047000.1,N
1689672815.9,286046999.7,N
1689672835.7,286047002.4,N
1689672855.6,286047002.3,N
1689672875.4,286047002.2,N
1689672895.2,286047001.5,N
1689672915.1,286047001.6,N
1689672916.0,286047001.6,N
1689672935.8,286047002.7,N
1689672955.6,286047000.3,N
1689672975.5,286046999.8,N
1689672995.3,286046999.7,N
1689673015.2,286047002.7,N
1689673035.9,286047002.8,N
1689673055.7,286046999.7,N
1689673075.6,286047002.4,N
1689673095.4,286047002.5,N
1689673115.2,286047002.7,N
1689673135.1,286047002.2,N
1689673136.0,286047002.2,N
1689673155.8,286047001.7,N
1689673175.7,286047001.5,N
1689673195.5,286047001.6,N
1689673215.3,286047002.5,N
1689673235.2,286047002.5,N
1689673255.0,286047002.0,N
1689673255.9,286047002.0,N
1689673275.7,286047002.2,N
1689673295.6,286047001.6,N
1689673315.4,286047002.6,N
1689673335.3,286047002.6,N
1689673355.1,286047002.6,N
1689673356.0,286047002.6,N
1689673375.8,286047001.9,N
1689673395.7,286047001.8,N
1689673415.5,286047002.6,N
1689673435.3,286047001.9,N
1689673455.2,286047001.5,N
1689673475.0,286047001.5,N
1689673475.9,286047001.5,N
1689673495.8,286047002.2,N
1689673515.6,286047002.5,Y
1689673535.4,286047000.3,P
1689673555.3,286047000.3,N
1689673575.1,286047000.5,N
1689673595.8,286047000.7,N
1689673615.7,286047000.3,N
1689673635.5,286047000.8,N
1689673655.4,286047001.0,N
1689673675.2,286047000.8,N
1689673695.0,286047000.8,N
1689673695.9,286047000.8,N
1689673715.8,286047000.8,N
1689673735.6,286046998.5,Y
1689673755.5,286046999.0,P
1689673775.3,286046999.3,N
1689673795.1,286046999.0,N
1689673815.9,286046999.6,N
1689673835.7,286046999.1,N
1689673855.6,286046998.8,N
1689673875.4,286046998.3,N
1689673895.2,286046998.3,N
1689673915.1,286046998.3,N
1689673916.0,286046998.3,N
1689673935.8,286046998.7,N
1689673955.6,286046998.9,N
1689673975.5,286046998.6,N
1689673995.3,286046998.8,N
1689674015.2,286046998.3,N
1689674035.9,286046998.1,Y
1689674055.7,286047000.3,P
1689674075.6,286047000.7,N
1689674095.4,286047000.4,N
1689674115.2,286047000.4,N
1689674135.1,286047000.5,N
1689674136.0,286047000.5,N
1689674155.8,286047000.5,N
1689674175.7,286046999.8,N
1689674195.5,286047000.3,N
1689674215.3,286047000.4,N
1689674235.2,286047000.3,N
1689674255.0,286047000.9,N
1689674255.9,286047000.9,N
1689674275.7,286047001.0,N
1689674295.6,286047001.1,N
1689674315.4,286047000.3,N
1689674335.3,286047000.8,N
1689674355.1,286047002.8,Y
1689674375.8,286047000.9,P
1689674395.7,286046998.5,P
